Regional Weather Roundup
Issued by NWS

Home | Current Version | Previous Version | Graphics & Text | Print | Product List | Glossary On
Versions: 1 2 3 4 5 6 7 8 9 10 11 12 13 14 15 16 17 18 19 20 21 22 23 24 25 26 27 28 29 30 31 32 33 34 35 36 37 38 39 40 41 42 43 44 45 46 47 48 49 50
000
ASUS45 KBOU 101010
RWRCO

WEATHER ROUNDUP FOR COLORADO
NATIONAL WEATHER SERVICE DENVER/BOULDER CO
400 AM MDT THU JUL 10 2014

NOTE: "FAIR" INDICATES FEW OR NO CLOUDS BELOW 12000 FEET WITH NO
SIGNIFICANT WEATHER AND/OR OBSTRUCTIONS TO VISIBILITY.

COZ001>005-013-030-031-101100-
...NORTHWEST COLORADO...

CITY           SKY/WX    TMP DP  RH WIND       PRES   REMARKS
CRAIG          PTCLDY    49  48  97 SE5       30.17F
HAYDEN         PTCLDY    52  41  66 E9        30.19S
MEEKER         MOCLDY    57  47  69 E8        30.18F
MOUNT WERNER   PTCLDY    57  30  35 W10       30.48F
STEAMBOAT SPGS PTCLDY    51  42  72 S5        30.22S
WALDEN         CLEAR     50  37  62 SE5       30.28R
$$

COZ006>008-011-101100-
...WEST CENTRAL VALLEYS...

CITY           SKY/WX    TMP DP  RH WIND       PRES   REMARKS
GRAND JUNCTION PTCLDY    69  49  48 E6        30.08S
MONTROSE       MOCLDY    65  45  48 SE6       30.18S
EAGLE          MOCLDY    57  43  58 CALM      30.23F
RIFLE          PTCLDY    61  46  57 CALM      30.14S
DELTA          MOCLDY    67  47  48 NE5       30.13S
NUCLA          MOCLDY    63  50  63 SE7       30.23S
$$

COZ017>023-064>068-101100-
...SOUTHWEST COLORADO...

CITY           SKY/WX    TMP DP  RH WIND       PRES   REMARKS
DURANGO        PTCLDY    56  49  77 N5        30.25F
CORTEZ         CLOUDY    63  52  67 E5        30.20F
PAGOSA SPRINGS PTCLDY    51  50  98 CALM      30.34F
TELLURIDE      NOT AVBL
WOLF CREEK PAS NOT AVBL
$$

COZ009-010-012-014-032>034-037-058>063-101100-
...CENTRAL COLORADO...

CITY           SKY/WX    TMP DP  RH WIND       PRES   REMARKS
ASPEN          MOCLDY    53  41  63 CALM      30.28F
BUENA VISTA    MOCLDY    56  40  54 CALM      30.30S
COPPER MTN     MOCLDY    54  34  47 W15G21    30.59S
BERTHOUD PASS  FAIR      43  30  61 NW9       30.62F
COTTONWOOD PAS CLOUDY    59  37  44 SE8       30.42S
GUNNISON       NOT AVBL
KREMMLING      MOCLDY    50  43  76 CALM      30.28F
LEADVILLE      MOCLDY    48  35  60 N3        30.41F
MONARCH PASS   PTCLDY    45  36  70 SW21      30.67F
SALIDA         MOCLDY   N/A N/A N/A S7        30.32F
SUNLIGHT       MOCLDY    54  41  62 CALM      30.51F
WILKERSON PASS PTCLDY    46  37  71 W7        30.53F
$$

COZ069>075-101100-
...SAN LUIS VALLEY/SANGRE DE CRISTO MOUNTAINS...

CITY           SKY/WX    TMP DP  RH WIND       PRES   REMARKS
ALAMOSA        CLEAR     48  42  80 SW8       30.28F
LA VETA PASS   NOT AVBL
SAGUACHE       NOT AVBL
$$

COZ035-036-038>040-101100-
...NORTHERN COLORADO FRONT RANGE...

CITY           SKY/WX    TMP DP  RH WIND       PRES   REMARKS
DENVER INTL AP PTCLDY    67  44  43 SW14      30.01F
DMNS CITY PARK   N/A     66  48  52 S3        30.01S
AURORA         PTCLDY    65  45  47 W5        30.04F
FRONT RANGE AP NOT AVBL
ERIE MUNI ARPT CLEAR     55  51  86 SW3       30.00S
BOULDER MUN AP CLEAR     63  46  55 NW3       30.01S
CENTENNIAL     PTCLDY    64  42  44 CALM      30.06S
BROOMFIELD     CLEAR     70  41  35 NW6       30.04S
FORT COLLINS   PTCLDY    63  55  77 CALM      30.00F
LONGMONT       PTCLDY    61  51  69 W5        30.01F
$$

COZ041-046-047-076>085-087-088-101100-
...PIKES PEAK/PALMER DIVIDE AND SOUTHERN FOOTHILLS...

CITY           SKY/WX    TMP DP  RH WIND       PRES   REMARKS
COLO. SPRINGS  CLEAR     57  48  72 N6        30.13F
A. F. ACADEMY  CLEAR     55  45  68 NW5       30.14F
ELLICOTT       NOT AVBL
FALCON         CLEAR     53  47  78 NW6       30.17F
FORT CARSON    CLEAR     58  46  63 NW8       30.09F
LIMON          CLEAR     56  50  80 N3        30.04F
MONUMENT HILL  CLEAR     55  43  62 S12       30.15F
TRINIDAD       CLEAR     67  48  50 W17       30.07S
$$

COZ042>045-048>051-090-091-101100-
...NORTHEAST COLORADO...

CITY           SKY/WX    TMP DP  RH WIND       PRES   REMARKS
GREELEY ARPT   NOT AVBL
AKRON          CLEAR     66  51  58 SW14      29.97S
BURLINGTON     CLEAR     66  56  70 SE12G26   29.98R
WRAY           CLEAR     63  56  79 E8        29.98R
STERLING       CLEAR     61  59  94 CALM      29.94S
HOLYOKE        CLOUDY    63  61  94 SE21      29.99R
FORT MORGAN    CLEAR     61  53  74 W6        29.98S
$$

COZ086-089-092>099-101100-
...SOUTHEAST COLORADO...

CITY           SKY/WX    TMP DP  RH WIND       PRES   REMARKS
PUEBLO         CLEAR     63  52  67 N9        29.99F
LA JUNTA       CLEAR     69  51  52 CALM      29.95F
LAMAR          PTCLDY    65  49  56 E7        29.92F
SPRINGFIELD      N/A     63  51  65 CALM      30.00F
$$



USA.gov is the U.S. government's official web portal to all federal, state and local government web resources and services.